Index of /20260504/WXO-DD/model_rdps/10km/12/040
Name Last modified Size Description
Parent Directory -
20260504T12Z_MSC_RDPS_AbsoluteVorticity_IsbL-0250_RLatLon0.09_PT040H.grib2 2026-05-04 14:57 739K
20260504T12Z_MSC_RDPS_AbsoluteVorticity_IsbL-0500_RLatLon0.09_PT040H.grib2 2026-05-04 14:57 556K
20260504T12Z_MSC_RDPS_AbsoluteVorticity_IsbL-0700_RLatLon0.09_PT040H.grib2 2026-05-04 14:57 614K
20260504T12Z_MSC_RDPS_AbsoluteVorticity_IsbL-0850_RLatLon0.09_PT040H.grib2 2026-05-04 14:57 788K
20260504T12Z_MSC_RDPS_AirTemp_AGL-120m_RLatLon0.09_PT040H.grib2 2026-05-04 14:57 369K
20260504T12Z_MSC_RDPS_AirTemp_AGL-2m_RLatLon0.09_PT040H.grib2 2026-05-04 14:57 619K
20260504T12Z_MSC_RDPS_AirTemp_AGL-40m_RLatLon0.09_PT040H.grib2 2026-05-04 14:57 381K
20260504T12Z_MSC_RDPS_AirTemp_AGL-80m_RLatLon0.09_PT040H.grib2 2026-05-04 14:57 373K
20260504T12Z_MSC_RDPS_AirTemp_IsbL-0001_RLatLon0.09_PT040H.grib2 2026-05-04 14:57 297K
20260504T12Z_MSC_RDPS_AirTemp_IsbL-0005_RLatLon0.09_PT040H.grib2 2026-05-04 14:57 290K
20260504T12Z_MSC_RDPS_AirTemp_IsbL-0010_RLatLon0.09_PT040H.grib2 2026-05-04 14:57 299K
20260504T12Z_MSC_RDPS_AirTemp_IsbL-0020_RLatLon0.09_PT040H.grib2 2026-05-04 14:57 317K
20260504T12Z_MSC_RDPS_AirTemp_IsbL-0030_RLatLon0.09_PT040H.grib2 2026-05-04 14:57 335K
20260504T12Z_MSC_RDPS_AirTemp_IsbL-0050_RLatLon0.09_PT040H.grib2 2026-05-04 14:57 316K
20260504T12Z_MSC_RDPS_AirTemp_IsbL-0100_RLatLon0.09_PT040H.grib2 2026-05-04 14:57 425K
20260504T12Z_MSC_RDPS_AirTemp_IsbL-0150_RLatLon0.09_PT040H.grib2 2026-05-04 14:57 419K
20260504T12Z_MSC_RDPS_AirTemp_IsbL-0175_RLatLon0.09_PT040H.grib2 2026-05-04 14:57 410K
20260504T12Z_MSC_RDPS_AirTemp_IsbL-0200_RLatLon0.09_PT040H.grib2 2026-05-04 14:57 412K
20260504T12Z_MSC_RDPS_AirTemp_IsbL-0225_RLatLon0.09_PT040H.grib2 2026-05-04 14:57 411K
20260504T12Z_MSC_RDPS_AirTemp_IsbL-0250_RLatLon0.09_PT040H.grib2 2026-05-04 14:57 416K
20260504T12Z_MSC_RDPS_AirTemp_IsbL-0275_RLatLon0.09_PT040H.grib2 2026-05-04 14:57 399K
20260504T12Z_MSC_RDPS_AirTemp_IsbL-0300_RLatLon0.09_PT040H.grib2 2026-05-04 14:57 407K
20260504T12Z_MSC_RDPS_AirTemp_IsbL-0350_RLatLon0.09_PT040H.grib2 2026-05-04 14:57 425K
20260504T12Z_MSC_RDPS_AirTemp_IsbL-0400_RLatLon0.09_PT040H.grib2 2026-05-04 14:57 428K
20260504T12Z_MSC_RDPS_AirTemp_IsbL-0450_RLatLon0.09_PT040H.grib2 2026-05-04 14:57 436K
20260504T12Z_MSC_RDPS_AirTemp_IsbL-0500_RLatLon0.09_PT040H.grib2 2026-05-04 14:57 446K
20260504T12Z_MSC_RDPS_AirTemp_IsbL-0550_RLatLon0.09_PT040H.grib2 2026-05-04 14:57 463K
20260504T12Z_MSC_RDPS_AirTemp_IsbL-0600_RLatLon0.09_PT040H.grib2 2026-05-04 14:57 443K
20260504T12Z_MSC_RDPS_AirTemp_IsbL-0650_RLatLon0.09_PT040H.grib2 2026-05-04 14:57 457K
20260504T12Z_MSC_RDPS_AirTemp_IsbL-0700_RLatLon0.09_PT040H.grib2 2026-05-04 14:57 376K
20260504T12Z_MSC_RDPS_AirTemp_IsbL-0750_RLatLon0.09_PT040H.grib2 2026-05-04 14:57 406K
20260504T12Z_MSC_RDPS_AirTemp_IsbL-0800_RLatLon0.09_PT040H.grib2 2026-05-04 14:57 452K
20260504T12Z_MSC_RDPS_AirTemp_IsbL-0850_RLatLon0.09_PT040H.grib2 2026-05-04 14:57 503K
20260504T12Z_MSC_RDPS_AirTemp_IsbL-0875_RLatLon0.09_PT040H.grib2 2026-05-04 14:57 523K
20260504T12Z_MSC_RDPS_AirTemp_IsbL-0900_RLatLon0.09_PT040H.grib2 2026-05-04 14:57 530K
20260504T12Z_MSC_RDPS_AirTemp_IsbL-0925_RLatLon0.09_PT040H.grib2 2026-05-04 14:57 523K
20260504T12Z_MSC_RDPS_AirTemp_IsbL-0950_RLatLon0.09_PT040H.grib2 2026-05-04 14:57 517K
20260504T12Z_MSC_RDPS_AirTemp_IsbL-0970_RLatLon0.09_PT040H.grib2 2026-05-04 14:57 507K
20260504T12Z_MSC_RDPS_AirTemp_IsbL-0985_RLatLon0.09_PT040H.grib2 2026-05-04 14:57 493K
20260504T12Z_MSC_RDPS_AirTemp_IsbL-1000_RLatLon0.09_PT040H.grib2 2026-05-04 14:57 476K
20260504T12Z_MSC_RDPS_AirTemp_IsbL-1015_RLatLon0.09_PT040H.grib2 2026-05-04 14:57 482K
20260504T12Z_MSC_RDPS_Albedo_Sfc_RLatLon0.09_PT040H.grib2 2026-05-04 14:57 157K
20260504T12Z_MSC_RDPS_CAPE_Sfc_RLatLon0.09_PT040H.grib2 2026-05-04 14:57 1.7M
20260504T12Z_MSC_RDPS_CIN_Sfc_RLatLon0.09_PT040H.grib2 2026-05-04 14:57 1.2M
20260504T12Z_MSC_RDPS_CloudWater_EAtm_RLatLon0.09_PT040H.grib2 2026-05-04 14:57 220K
20260504T12Z_MSC_RDPS_ConvectivePrecip-Accum_Sfc_RLatLon0.09_PT040H.grib2 2026-05-04 14:57 1.0M
20260504T12Z_MSC_RDPS_DewPointDepression_AGL-2m_RLatLon0.09_PT040H.grib2 2026-05-04 14:57 399K
20260504T12Z_MSC_RDPS_DewPointDepression_IsbL-0001_RLatLon0.09_PT040H.grib2 2026-05-04 14:57 193
20260504T12Z_MSC_RDPS_DewPointDepression_IsbL-0005_RLatLon0.09_PT040H.grib2 2026-05-04 14:57 193
20260504T12Z_MSC_RDPS_DewPointDepression_IsbL-0010_RLatLon0.09_PT040H.grib2 2026-05-04 14:57 193
20260504T12Z_MSC_RDPS_DewPointDepression_IsbL-0020_RLatLon0.09_PT040H.grib2 2026-05-04 14:57 193
20260504T12Z_MSC_RDPS_DewPointDepression_IsbL-0030_RLatLon0.09_PT040H.grib2 2026-05-04 14:57 193
20260504T12Z_MSC_RDPS_DewPointDepression_IsbL-0050_RLatLon0.09_PT040H.grib2 2026-05-04 14:57 78K
20260504T12Z_MSC_RDPS_DewPointDepression_IsbL-0100_RLatLon0.09_PT040H.grib2 2026-05-04 14:57 112K
20260504T12Z_MSC_RDPS_DewPointDepression_IsbL-0150_RLatLon0.09_PT040H.grib2 2026-05-04 14:57 143K
20260504T12Z_MSC_RDPS_DewPointDepression_IsbL-0175_RLatLon0.09_PT040H.grib2 2026-05-04 14:57 186K
20260504T12Z_MSC_RDPS_DewPointDepression_IsbL-0200_RLatLon0.09_PT040H.grib2 2026-05-04 14:57 220K
20260504T12Z_MSC_RDPS_DewPointDepression_IsbL-0225_RLatLon0.09_PT040H.grib2 2026-05-04 14:57 251K
20260504T12Z_MSC_RDPS_DewPointDepression_IsbL-0250_RLatLon0.09_PT040H.grib2 2026-05-04 14:57 298K
20260504T12Z_MSC_RDPS_DewPointDepression_IsbL-0275_RLatLon0.09_PT040H.grib2 2026-05-04 14:57 309K
20260504T12Z_MSC_RDPS_DewPointDepression_IsbL-0300_RLatLon0.09_PT040H.grib2 2026-05-04 14:57 327K
20260504T12Z_MSC_RDPS_DewPointDepression_IsbL-0350_RLatLon0.09_PT040H.grib2 2026-05-04 14:57 328K
20260504T12Z_MSC_RDPS_DewPointDepression_IsbL-0400_RLatLon0.09_PT040H.grib2 2026-05-04 14:57 338K
20260504T12Z_MSC_RDPS_DewPointDepression_IsbL-0450_RLatLon0.09_PT040H.grib2 2026-05-04 14:57 344K
20260504T12Z_MSC_RDPS_DewPointDepression_IsbL-0500_RLatLon0.09_PT040H.grib2 2026-05-04 14:57 346K
20260504T12Z_MSC_RDPS_DewPointDepression_IsbL-0550_RLatLon0.09_PT040H.grib2 2026-05-04 14:57 357K
20260504T12Z_MSC_RDPS_DewPointDepression_IsbL-0600_RLatLon0.09_PT040H.grib2 2026-05-04 14:57 367K
20260504T12Z_MSC_RDPS_DewPointDepression_IsbL-0650_RLatLon0.09_PT040H.grib2 2026-05-04 14:57 373K
20260504T12Z_MSC_RDPS_DewPointDepression_IsbL-0700_RLatLon0.09_PT040H.grib2 2026-05-04 14:57 382K
20260504T12Z_MSC_RDPS_DewPointDepression_IsbL-0750_RLatLon0.09_PT040H.grib2 2026-05-04 14:57 400K
20260504T12Z_MSC_RDPS_DewPointDepression_IsbL-0800_RLatLon0.09_PT040H.grib2 2026-05-04 14:57 434K
20260504T12Z_MSC_RDPS_DewPointDepression_IsbL-0850_RLatLon0.09_PT040H.grib2 2026-05-04 14:57 473K
20260504T12Z_MSC_RDPS_DewPointDepression_IsbL-0875_RLatLon0.09_PT040H.grib2 2026-05-04 14:57 473K
20260504T12Z_MSC_RDPS_DewPointDepression_IsbL-0900_RLatLon0.09_PT040H.grib2 2026-05-04 14:57 462K
20260504T12Z_MSC_RDPS_DewPointDepression_IsbL-0925_RLatLon0.09_PT040H.grib2 2026-05-04 14:57 449K
20260504T12Z_MSC_RDPS_DewPointDepression_IsbL-0950_RLatLon0.09_PT040H.grib2 2026-05-04 14:57 438K
20260504T12Z_MSC_RDPS_DewPointDepression_IsbL-0970_RLatLon0.09_PT040H.grib2 2026-05-04 14:57 429K
20260504T12Z_MSC_RDPS_DewPointDepression_IsbL-0985_RLatLon0.09_PT040H.grib2 2026-05-04 14:57 425K
20260504T12Z_MSC_RDPS_DewPointDepression_IsbL-1000_RLatLon0.09_PT040H.grib2 2026-05-04 14:57 420K
20260504T12Z_MSC_RDPS_DewPointDepression_IsbL-1015_RLatLon0.09_PT040H.grib2 2026-05-04 14:57 411K
20260504T12Z_MSC_RDPS_DewPoint_AGL-2m_RLatLon0.09_PT040H.grib2 2026-05-04 14:57 299K
20260504T12Z_MSC_RDPS_DownwardLongwaveRadiationFlux-Accum_Sfc_RLatLon0.09_PT040H.grib2 2026-05-04 14:57 388K
20260504T12Z_MSC_RDPS_DownwardShortwaveRadiationFlux-Accum_NTAtm_RLatLon0.09_PT040H.grib2 2026-05-04 14:57 149K
20260504T12Z_MSC_RDPS_DownwardShortwaveRadiationFlux-Accum_Sfc_RLatLon0.09_PT040H.grib2 2026-05-04 14:57 558K
20260504T12Z_MSC_RDPS_FreezingRain-Accum1h_Sfc_RLatLon0.09_PT040H.grib2 2026-05-04 14:57 22K
20260504T12Z_MSC_RDPS_FreezingRain-Accum_Sfc_RLatLon0.09_PT040H.grib2 2026-05-04 14:57 131K
20260504T12Z_MSC_RDPS_GeopotentialHeight_IsbL-0001_RLatLon0.09_PT040H.grib2 2026-05-04 14:57 237K
20260504T12Z_MSC_RDPS_GeopotentialHeight_IsbL-0005_RLatLon0.09_PT040H.grib2 2026-05-04 14:57 337K
20260504T12Z_MSC_RDPS_GeopotentialHeight_IsbL-0010_RLatLon0.09_PT040H.grib2 2026-05-04 14:57 337K
20260504T12Z_MSC_RDPS_GeopotentialHeight_IsbL-0020_RLatLon0.09_PT040H.grib2 2026-05-04 14:57 305K
20260504T12Z_MSC_RDPS_GeopotentialHeight_IsbL-0030_RLatLon0.09_PT040H.grib2 2026-05-04 14:57 307K
20260504T12Z_MSC_RDPS_GeopotentialHeight_IsbL-0050_RLatLon0.09_PT040H.grib2 2026-05-04 14:57 309K
20260504T12Z_MSC_RDPS_GeopotentialHeight_IsbL-0100_RLatLon0.09_PT040H.grib2 2026-05-04 14:57 284K
20260504T12Z_MSC_RDPS_GeopotentialHeight_IsbL-0150_RLatLon0.09_PT040H.grib2 2026-05-04 14:57 228K
20260504T12Z_MSC_RDPS_GeopotentialHeight_IsbL-0175_RLatLon0.09_PT040H.grib2 2026-05-04 14:57 230K
20260504T12Z_MSC_RDPS_GeopotentialHeight_IsbL-0200_RLatLon0.09_PT040H.grib2 2026-05-04 14:57 234K
20260504T12Z_MSC_RDPS_GeopotentialHeight_IsbL-0225_RLatLon0.09_PT040H.grib2 2026-05-04 14:57 266K
20260504T12Z_MSC_RDPS_GeopotentialHeight_IsbL-0250_RLatLon0.09_PT040H.grib2 2026-05-04 14:57 267K
20260504T12Z_MSC_RDPS_GeopotentialHeight_IsbL-0275_RLatLon0.09_PT040H.grib2 2026-05-04 14:57 236K
20260504T12Z_MSC_RDPS_GeopotentialHeight_IsbL-0300_RLatLon0.09_PT040H.grib2 2026-05-04 14:57 235K
20260504T12Z_MSC_RDPS_GeopotentialHeight_IsbL-0350_RLatLon0.09_PT040H.grib2 2026-05-04 14:57 231K
20260504T12Z_MSC_RDPS_GeopotentialHeight_IsbL-0400_RLatLon0.09_PT040H.grib2 2026-05-04 14:57 228K
20260504T12Z_MSC_RDPS_GeopotentialHeight_IsbL-0450_RLatLon0.09_PT040H.grib2 2026-05-04 14:57 297K
20260504T12Z_MSC_RDPS_GeopotentialHeight_IsbL-0500_RLatLon0.09_PT040H.grib2 2026-05-04 14:57 293K
20260504T12Z_MSC_RDPS_GeopotentialHeight_IsbL-0550_RLatLon0.09_PT040H.grib2 2026-05-04 14:57 290K
20260504T12Z_MSC_RDPS_GeopotentialHeight_IsbL-0600_RLatLon0.09_PT040H.grib2 2026-05-04 14:57 287K
20260504T12Z_MSC_RDPS_GeopotentialHeight_IsbL-0650_RLatLon0.09_PT040H.grib2 2026-05-04 14:57 257K
20260504T12Z_MSC_RDPS_GeopotentialHeight_IsbL-0700_RLatLon0.09_PT040H.grib2 2026-05-04 14:57 256K
20260504T12Z_MSC_RDPS_GeopotentialHeight_IsbL-0750_RLatLon0.09_PT040H.grib2 2026-05-04 14:57 342K
20260504T12Z_MSC_RDPS_GeopotentialHeight_IsbL-0800_RLatLon0.09_PT040H.grib2 2026-05-04 14:57 351K
20260504T12Z_MSC_RDPS_GeopotentialHeight_IsbL-0850_RLatLon0.09_PT040H.grib2 2026-05-04 14:57 362K
20260504T12Z_MSC_RDPS_GeopotentialHeight_IsbL-0875_RLatLon0.09_PT040H.grib2 2026-05-04 14:57 364K
20260504T12Z_MSC_RDPS_GeopotentialHeight_IsbL-0900_RLatLon0.09_PT040H.grib2 2026-05-04 14:57 366K
20260504T12Z_MSC_RDPS_GeopotentialHeight_IsbL-0925_RLatLon0.09_PT040H.grib2 2026-05-04 14:57 282K
20260504T12Z_MSC_RDPS_GeopotentialHeight_IsbL-0950_RLatLon0.09_PT040H.grib2 2026-05-04 14:57 283K
20260504T12Z_MSC_RDPS_GeopotentialHeight_IsbL-0970_RLatLon0.09_PT040H.grib2 2026-05-04 14:57 286K
20260504T12Z_MSC_RDPS_GeopotentialHeight_IsbL-0985_RLatLon0.09_PT040H.grib2 2026-05-04 14:57 291K
20260504T12Z_MSC_RDPS_GeopotentialHeight_IsbL-1000_RLatLon0.09_PT040H.grib2 2026-05-04 14:57 299K
20260504T12Z_MSC_RDPS_GeopotentialHeight_IsbL-1015_RLatLon0.09_PT040H.grib2 2026-05-04 14:57 309K
20260504T12Z_MSC_RDPS_Humidex_Sfc_RLatLon0.09_PT040H.grib2 2026-05-04 14:57 2.4M
20260504T12Z_MSC_RDPS_IcePellets-Accum1h_Sfc_RLatLon0.09_PT040H.grib2 2026-05-04 14:57 5.8K
20260504T12Z_MSC_RDPS_IcePellets-Accum_Sfc_RLatLon0.09_PT040H.grib2 2026-05-04 14:57 31K
20260504T12Z_MSC_RDPS_KIndex_Sfc_RLatLon0.09_PT040H.grib2 2026-05-04 14:57 2.5M
20260504T12Z_MSC_RDPS_LatentHeatNetFlux_Sfc_RLatLon0.09_PT040H.grib2 2026-05-04 14:57 325K
20260504T12Z_MSC_RDPS_LiftedIndex-MU-VT_IsbL-0500_RLatLon0.09_PT040H.grib2 2026-05-04 14:57 2.4M
20260504T12Z_MSC_RDPS_NetLongwaveRadiationFlux-Accum_Sfc_RLatLon0.09_PT040H.grib2 2026-05-04 14:57 527K
20260504T12Z_MSC_RDPS_NetShortwaveRadiationFlux-Accum_Sfc_RLatLon0.09_PT040H.grib2 2026-05-04 14:57 554K
20260504T12Z_MSC_RDPS_PlanetaryBoundaryLayerHeight_Sfc_RLatLon0.09_PT040H.grib2 2026-05-04 14:57 1.1M
20260504T12Z_MSC_RDPS_Precip-Accum1h_Sfc_RLatLon0.09_PT040H.grib2 2026-05-04 14:57 1.2M
20260504T12Z_MSC_RDPS_Precip-Accum_Sfc_RLatLon0.09_PT040H.grib2 2026-05-04 14:57 2.0M
20260504T12Z_MSC_RDPS_PrecipRate_Sfc_RLatLon0.09_PT040H.grib2 2026-05-04 14:57 181K
20260504T12Z_MSC_RDPS_PrecipType-Instant_Sfc_RLatLon0.09_PT040H.grib2 2026-05-04 14:57 601K
20260504T12Z_MSC_RDPS_Pressure-Trend3h_Sfc_RLatLon0.09_PT040H.grib2 2026-05-04 14:57 1.2M
20260504T12Z_MSC_RDPS_Pressure_MSL_RLatLon0.09_PT040H.grib2 2026-05-04 14:57 325K
20260504T12Z_MSC_RDPS_Pressure_PVU-1.5_RLatLon0.09_PT040H.grib2 2026-05-04 14:57 2.5M
20260504T12Z_MSC_RDPS_Pressure_PVU-1_RLatLon0.09_PT040H.grib2 2026-05-04 14:57 2.4M
20260504T12Z_MSC_RDPS_Pressure_PVU-2_RLatLon0.09_PT040H.grib2 2026-05-04 14:57 2.4M
20260504T12Z_MSC_RDPS_Pressure_Sfc_RLatLon0.09_PT040H.grib2 2026-05-04 14:57 497K
20260504T12Z_MSC_RDPS_RadiativeTemp_Sfc_RLatLon0.09_PT040H.grib2 2026-05-04 14:57 297K
20260504T12Z_MSC_RDPS_Rain-Accum1h_Sfc_RLatLon0.09_PT040H.grib2 2026-05-04 14:57 622K
20260504T12Z_MSC_RDPS_Rain-Accum_Sfc_RLatLon0.09_PT040H.grib2 2026-05-04 14:57 1.6M
20260504T12Z_MSC_RDPS_RelativeHumidity_AGL-2m_RLatLon0.09_PT040H.grib2 2026-05-04 14:57 1.0M
20260504T12Z_MSC_RDPS_RelativeHumidity_IsbL-0010_RLatLon0.09_PT040H.grib2 2026-05-04 14:57 578K
20260504T12Z_MSC_RDPS_RelativeHumidity_IsbL-0020_RLatLon0.09_PT040H.grib2 2026-05-04 14:57 664K
20260504T12Z_MSC_RDPS_RelativeHumidity_IsbL-0030_RLatLon0.09_PT040H.grib2 2026-05-04 14:57 641K
20260504T12Z_MSC_RDPS_RelativeHumidity_IsbL-0050_RLatLon0.09_PT040H.grib2 2026-05-04 14:57 362K
20260504T12Z_MSC_RDPS_RelativeHumidity_IsbL-0100_RLatLon0.09_PT040H.grib2 2026-05-04 14:57 271K
20260504T12Z_MSC_RDPS_RelativeHumidity_IsbL-0150_RLatLon0.09_PT040H.grib2 2026-05-04 14:57 422K
20260504T12Z_MSC_RDPS_RelativeHumidity_IsbL-0175_RLatLon0.09_PT040H.grib2 2026-05-04 14:57 487K
20260504T12Z_MSC_RDPS_RelativeHumidity_IsbL-0200_RLatLon0.09_PT040H.grib2 2026-05-04 14:57 555K
20260504T12Z_MSC_RDPS_RelativeHumidity_IsbL-0225_RLatLon0.09_PT040H.grib2 2026-05-04 14:57 610K
20260504T12Z_MSC_RDPS_RelativeHumidity_IsbL-0250_RLatLon0.09_PT040H.grib2 2026-05-04 14:57 676K
20260504T12Z_MSC_RDPS_RelativeHumidity_IsbL-0275_RLatLon0.09_PT040H.grib2 2026-05-04 14:57 707K
20260504T12Z_MSC_RDPS_RelativeHumidity_IsbL-0300_RLatLon0.09_PT040H.grib2 2026-05-04 14:57 752K
20260504T12Z_MSC_RDPS_RelativeHumidity_IsbL-0350_RLatLon0.09_PT040H.grib2 2026-05-04 14:57 768K
20260504T12Z_MSC_RDPS_RelativeHumidity_IsbL-0400_RLatLon0.09_PT040H.grib2 2026-05-04 14:57 781K
20260504T12Z_MSC_RDPS_RelativeHumidity_IsbL-0450_RLatLon0.09_PT040H.grib2 2026-05-04 14:57 789K
20260504T12Z_MSC_RDPS_RelativeHumidity_IsbL-0500_RLatLon0.09_PT040H.grib2 2026-05-04 14:57 790K
20260504T12Z_MSC_RDPS_RelativeHumidity_IsbL-0550_RLatLon0.09_PT040H.grib2 2026-05-04 14:57 808K
20260504T12Z_MSC_RDPS_RelativeHumidity_IsbL-0600_RLatLon0.09_PT040H.grib2 2026-05-04 14:57 824K
20260504T12Z_MSC_RDPS_RelativeHumidity_IsbL-0650_RLatLon0.09_PT040H.grib2 2026-05-04 14:57 839K
20260504T12Z_MSC_RDPS_RelativeHumidity_IsbL-0700_RLatLon0.09_PT040H.grib2 2026-05-04 14:57 863K
20260504T12Z_MSC_RDPS_RelativeHumidity_IsbL-0750_RLatLon0.09_PT040H.grib2 2026-05-04 14:57 910K
20260504T12Z_MSC_RDPS_RelativeHumidity_IsbL-0800_RLatLon0.09_PT040H.grib2 2026-05-04 14:57 970K
20260504T12Z_MSC_RDPS_RelativeHumidity_IsbL-0850_RLatLon0.09_PT040H.grib2 2026-05-04 14:57 1.0M
20260504T12Z_MSC_RDPS_RelativeHumidity_IsbL-0875_RLatLon0.09_PT040H.grib2 2026-05-04 14:57 1.1M
20260504T12Z_MSC_RDPS_RelativeHumidity_IsbL-0900_RLatLon0.09_PT040H.grib2 2026-05-04 14:57 1.1M
20260504T12Z_MSC_RDPS_RelativeHumidity_IsbL-0925_RLatLon0.09_PT040H.grib2 2026-05-04 14:57 1.1M
20260504T12Z_MSC_RDPS_RelativeHumidity_IsbL-0950_RLatLon0.09_PT040H.grib2 2026-05-04 14:57 1.1M
20260504T12Z_MSC_RDPS_RelativeHumidity_IsbL-0970_RLatLon0.09_PT040H.grib2 2026-05-04 14:57 1.0M
20260504T12Z_MSC_RDPS_RelativeHumidity_IsbL-0985_RLatLon0.09_PT040H.grib2 2026-05-04 14:57 1.0M
20260504T12Z_MSC_RDPS_RelativeHumidity_IsbL-1000_RLatLon0.09_PT040H.grib2 2026-05-04 14:57 1.0M
20260504T12Z_MSC_RDPS_RelativeHumidity_IsbL-1015_RLatLon0.09_PT040H.grib2 2026-05-04 14:57 1.0M
20260504T12Z_MSC_RDPS_Runoff-Accum_Sfc_RLatLon0.09_PT040H.grib2 2026-05-04 14:57 70K
20260504T12Z_MSC_RDPS_SWEATIndex_Sfc_RLatLon0.09_PT040H.grib2 2026-05-04 14:57 2.4M
20260504T12Z_MSC_RDPS_SeeingIndex_EAtm_RLatLon0.09_PT040H.grib2 2026-05-04 14:57 1.0M
20260504T12Z_MSC_RDPS_SensibleHeatNetFlux_Sfc_RLatLon0.09_PT040H.grib2 2026-05-04 14:57 295K
20260504T12Z_MSC_RDPS_ShowalterIndex_IsbL-0500_RLatLon0.09_PT040H.grib2 2026-05-04 14:57 2.6M
20260504T12Z_MSC_RDPS_SkyTransparencyIndex_EAtm_RLatLon0.09_PT040H.grib2 2026-05-04 14:57 693K
20260504T12Z_MSC_RDPS_Snow-Accum1h_Sfc_RLatLon0.09_PT040H.grib2 2026-05-04 14:57 469K
20260504T12Z_MSC_RDPS_Snow-Accum_Sfc_RLatLon0.09_PT040H.grib2 2026-05-04 14:57 768K
20260504T12Z_MSC_RDPS_SnowDensity_Sfc_RLatLon0.09_PT040H.grib2 2026-05-04 14:57 173K
20260504T12Z_MSC_RDPS_SnowDepth_Sfc_RLatLon0.09_PT040H.grib2 2026-05-04 14:57 651K
20260504T12Z_MSC_RDPS_SoilTemp_DBS-0to10cm_RLatLon0.09_PT040H.grib2 2026-05-04 14:57 239K
20260504T12Z_MSC_RDPS_SoilTemp_Sfc_RLatLon0.09_PT040H.grib2 2026-05-04 14:57 265K
20260504T12Z_MSC_RDPS_SoilVolumetricIceContent_Sfc_RLatLon0.09_PT040H.grib2 2026-05-04 14:57 152K
20260504T12Z_MSC_RDPS_SoilVolumetricWaterContent_DBS-0to10cm_RLatLon0.09_PT040H.grib2 2026-05-04 14:57 279K
20260504T12Z_MSC_RDPS_SoilVolumetricWaterContent_DBS-0to1cm_RLatLon0.09_PT040H.grib2 2026-05-04 14:57 342K
20260504T12Z_MSC_RDPS_SpecificHumidity_AGL-120m_RLatLon0.09_PT040H.grib2 2026-05-04 14:57 482K
20260504T12Z_MSC_RDPS_SpecificHumidity_AGL-2m_RLatLon0.09_PT040H.grib2 2026-05-04 14:57 646K
20260504T12Z_MSC_RDPS_SpecificHumidity_AGL-40m_RLatLon0.09_PT040H.grib2 2026-05-04 14:57 487K
20260504T12Z_MSC_RDPS_SpecificHumidity_AGL-80m_RLatLon0.09_PT040H.grib2 2026-05-04 14:57 483K
20260504T12Z_MSC_RDPS_SpecificHumidity_IsbL-0001_RLatLon0.09_PT040H.grib2 2026-05-04 14:57 403K
20260504T12Z_MSC_RDPS_SpecificHumidity_IsbL-0005_RLatLon0.09_PT040H.grib2 2026-05-04 14:57 374K
20260504T12Z_MSC_RDPS_SpecificHumidity_IsbL-0010_RLatLon0.09_PT040H.grib2 2026-05-04 14:57 404K
20260504T12Z_MSC_RDPS_SpecificHumidity_IsbL-0020_RLatLon0.09_PT040H.grib2 2026-05-04 14:57 385K
20260504T12Z_MSC_RDPS_SpecificHumidity_IsbL-0030_RLatLon0.09_PT040H.grib2 2026-05-04 14:57 375K
20260504T12Z_MSC_RDPS_SpecificHumidity_IsbL-0050_RLatLon0.09_PT040H.grib2 2026-05-04 14:57 487K
20260504T12Z_MSC_RDPS_SpecificHumidity_IsbL-0100_RLatLon0.09_PT040H.grib2 2026-05-04 14:57 418K
20260504T12Z_MSC_RDPS_SpecificHumidity_IsbL-0150_RLatLon0.09_PT040H.grib2 2026-05-04 14:57 464K
20260504T12Z_MSC_RDPS_SpecificHumidity_IsbL-0175_RLatLon0.09_PT040H.grib2 2026-05-04 14:57 453K
20260504T12Z_MSC_RDPS_SpecificHumidity_IsbL-0200_RLatLon0.09_PT040H.grib2 2026-05-04 14:57 458K
20260504T12Z_MSC_RDPS_SpecificHumidity_IsbL-0225_RLatLon0.09_PT040H.grib2 2026-05-04 14:57 451K
20260504T12Z_MSC_RDPS_SpecificHumidity_IsbL-0250_RLatLon0.09_PT040H.grib2 2026-05-04 14:57 514K
20260504T12Z_MSC_RDPS_SpecificHumidity_IsbL-0275_RLatLon0.09_PT040H.grib2 2026-05-04 14:57 478K
20260504T12Z_MSC_RDPS_SpecificHumidity_IsbL-0300_RLatLon0.09_PT040H.grib2 2026-05-04 14:57 455K
20260504T12Z_MSC_RDPS_SpecificHumidity_IsbL-0350_RLatLon0.09_PT040H.grib2 2026-05-04 14:57 542K
20260504T12Z_MSC_RDPS_SpecificHumidity_IsbL-0400_RLatLon0.09_PT040H.grib2 2026-05-04 14:57 522K
20260504T12Z_MSC_RDPS_SpecificHumidity_IsbL-0450_RLatLon0.09_PT040H.grib2 2026-05-04 14:57 573K
20260504T12Z_MSC_RDPS_SpecificHumidity_IsbL-0500_RLatLon0.09_PT040H.grib2 2026-05-04 14:57 504K
20260504T12Z_MSC_RDPS_SpecificHumidity_IsbL-0550_RLatLon0.09_PT040H.grib2 2026-05-04 14:57 576K
20260504T12Z_MSC_RDPS_SpecificHumidity_IsbL-0600_RLatLon0.09_PT040H.grib2 2026-05-04 14:57 625K
20260504T12Z_MSC_RDPS_SpecificHumidity_IsbL-0650_RLatLon0.09_PT040H.grib2 2026-05-04 14:57 542K
20260504T12Z_MSC_RDPS_SpecificHumidity_IsbL-0700_RLatLon0.09_PT040H.grib2 2026-05-04 14:57 584K
20260504T12Z_MSC_RDPS_SpecificHumidity_IsbL-0750_RLatLon0.09_PT040H.grib2 2026-05-04 14:57 637K
20260504T12Z_MSC_RDPS_SpecificHumidity_IsbL-0800_RLatLon0.09_PT040H.grib2 2026-05-04 14:57 719K
20260504T12Z_MSC_RDPS_SpecificHumidity_IsbL-0850_RLatLon0.09_PT040H.grib2 2026-05-04 14:57 801K
20260504T12Z_MSC_RDPS_SpecificHumidity_IsbL-0875_RLatLon0.09_PT040H.grib2 2026-05-04 14:57 826K
20260504T12Z_MSC_RDPS_SpecificHumidity_IsbL-0900_RLatLon0.09_PT040H.grib2 2026-05-04 14:57 839K
20260504T12Z_MSC_RDPS_SpecificHumidity_IsbL-0925_RLatLon0.09_PT040H.grib2 2026-05-04 14:57 841K
20260504T12Z_MSC_RDPS_SpecificHumidity_IsbL-0950_RLatLon0.09_PT040H.grib2 2026-05-04 14:57 698K
20260504T12Z_MSC_RDPS_SpecificHumidity_IsbL-0970_RLatLon0.09_PT040H.grib2 2026-05-04 14:57 688K
20260504T12Z_MSC_RDPS_SpecificHumidity_IsbL-0985_RLatLon0.09_PT040H.grib2 2026-05-04 14:57 680K
20260504T12Z_MSC_RDPS_SpecificHumidity_IsbL-1000_RLatLon0.09_PT040H.grib2 2026-05-04 14:57 673K
20260504T12Z_MSC_RDPS_SpecificHumidity_IsbL-1015_RLatLon0.09_PT040H.grib2 2026-05-04 14:57 662K
20260504T12Z_MSC_RDPS_SpecificHumidity_Sfc_RLatLon0.09_PT040H.grib2 2026-05-04 14:57 311K
20260504T12Z_MSC_RDPS_StormRelativeHelicity_EtaL-10000_RLatLon0.09_PT040H.grib2 2026-05-04 14:57 1.1M
20260504T12Z_MSC_RDPS_StormSeverityIndex_EtaL-10000_RLatLon0.09_PT040H.grib2 2026-05-04 14:57 1.2M
20260504T12Z_MSC_RDPS_Thickness_IsbL-0850to0700_RLatLon0.09_PT040H.grib2 2026-05-04 14:57 177K
20260504T12Z_MSC_RDPS_Thickness_IsbL-1000to0500_RLatLon0.09_PT040H.grib2 2026-05-04 14:57 196K
20260504T12Z_MSC_RDPS_Thickness_IsbL-1000to0850_RLatLon0.09_PT040H.grib2 2026-05-04 14:57 183K
20260504T12Z_MSC_RDPS_TotalCloudCover_Sfc_RLatLon0.09_PT040H.grib2 2026-05-04 14:57 649K
20260504T12Z_MSC_RDPS_TotalTotalsIndex_Sfc_RLatLon0.09_PT040H.grib2 2026-05-04 14:57 2.4M
20260504T12Z_MSC_RDPS_UVIndex-ClearSky_Sfc_RLatLon0.09_PT040H.grib2 2026-05-04 14:57 120K
20260504T12Z_MSC_RDPS_UVIndex_Sfc_RLatLon0.09_PT040H.grib2 2026-05-04 14:57 210K
20260504T12Z_MSC_RDPS_UpwardLongwaveRadiationFlux_NTAtm_RLatLon0.09_PT040H.grib2 2026-05-04 14:57 480K
20260504T12Z_MSC_RDPS_UpwardShortwaveRadiationFlux_NTAtm_RLatLon0.09_PT040H.grib2 2026-05-04 14:57 166K
20260504T12Z_MSC_RDPS_VerticalVelocity_IsbL-0250_RLatLon0.09_PT040H.grib2 2026-05-04 14:57 433K
20260504T12Z_MSC_RDPS_VerticalVelocity_IsbL-0500_RLatLon0.09_PT040H.grib2 2026-05-04 14:57 548K
20260504T12Z_MSC_RDPS_VerticalVelocity_IsbL-0700_RLatLon0.09_PT040H.grib2 2026-05-04 14:57 596K
20260504T12Z_MSC_RDPS_VerticalVelocity_IsbL-0850_RLatLon0.09_PT040H.grib2 2026-05-04 14:57 700K
20260504T12Z_MSC_RDPS_VerticalWindShear_EtaL-6500_RLatLon0.09_PT040H.grib2 2026-05-04 14:57 1.2M
20260504T12Z_MSC_RDPS_WindChill_Sfc_RLatLon0.09_PT040H.grib2 2026-05-04 14:57 1.1M
20260504T12Z_MSC_RDPS_WindDir_AGL-10m_RLatLon0.09_PT040H.grib2 2026-05-04 14:57 936K
20260504T12Z_MSC_RDPS_WindDir_AGL-120m_RLatLon0.09_PT040H.grib2 2026-05-04 14:57 573K
20260504T12Z_MSC_RDPS_WindDir_AGL-40m_RLatLon0.09_PT040H.grib2 2026-05-04 14:57 605K
20260504T12Z_MSC_RDPS_WindDir_AGL-80m_RLatLon0.09_PT040H.grib2 2026-05-04 14:57 586K
20260504T12Z_MSC_RDPS_WindDir_IsbL-0001_RLatLon0.09_PT040H.grib2 2026-05-04 14:57 300K
20260504T12Z_MSC_RDPS_WindDir_IsbL-0005_RLatLon0.09_PT040H.grib2 2026-05-04 14:57 369K
20260504T12Z_MSC_RDPS_WindDir_IsbL-0010_RLatLon0.09_PT040H.grib2 2026-05-04 14:57 396K
20260504T12Z_MSC_RDPS_WindDir_IsbL-0020_RLatLon0.09_PT040H.grib2 2026-05-04 14:57 414K
20260504T12Z_MSC_RDPS_WindDir_IsbL-0030_RLatLon0.09_PT040H.grib2 2026-05-04 14:57 413K
20260504T12Z_MSC_RDPS_WindDir_IsbL-0050_RLatLon0.09_PT040H.grib2 2026-05-04 14:57 429K
20260504T12Z_MSC_RDPS_WindDir_IsbL-0100_RLatLon0.09_PT040H.grib2 2026-05-04 14:57 418K
20260504T12Z_MSC_RDPS_WindDir_IsbL-0150_RLatLon0.09_PT040H.grib2 2026-05-04 14:57 421K
20260504T12Z_MSC_RDPS_WindDir_IsbL-0175_RLatLon0.09_PT040H.grib2 2026-05-04 14:57 447K
20260504T12Z_MSC_RDPS_WindDir_IsbL-0200_RLatLon0.09_PT040H.grib2 2026-05-04 14:57 459K
20260504T12Z_MSC_RDPS_WindDir_IsbL-0225_RLatLon0.09_PT040H.grib2 2026-05-04 14:57 456K
20260504T12Z_MSC_RDPS_WindDir_IsbL-0250_RLatLon0.09_PT040H.grib2 2026-05-04 14:57 453K
20260504T12Z_MSC_RDPS_WindDir_IsbL-0275_RLatLon0.09_PT040H.grib2 2026-05-04 14:57 469K
20260504T12Z_MSC_RDPS_WindDir_IsbL-0300_RLatLon0.09_PT040H.grib2 2026-05-04 14:57 471K
20260504T12Z_MSC_RDPS_WindDir_IsbL-0350_RLatLon0.09_PT040H.grib2 2026-05-04 14:57 502K
20260504T12Z_MSC_RDPS_WindDir_IsbL-0400_RLatLon0.09_PT040H.grib2 2026-05-04 14:57 517K
20260504T12Z_MSC_RDPS_WindDir_IsbL-0450_RLatLon0.09_PT040H.grib2 2026-05-04 14:57 538K
20260504T12Z_MSC_RDPS_WindDir_IsbL-0500_RLatLon0.09_PT040H.grib2 2026-05-04 14:57 537K
20260504T12Z_MSC_RDPS_WindDir_IsbL-0550_RLatLon0.09_PT040H.grib2 2026-05-04 14:57 552K
20260504T12Z_MSC_RDPS_WindDir_IsbL-0600_RLatLon0.09_PT040H.grib2 2026-05-04 14:57 578K
20260504T12Z_MSC_RDPS_WindDir_IsbL-0650_RLatLon0.09_PT040H.grib2 2026-05-04 14:57 623K
20260504T12Z_MSC_RDPS_WindDir_IsbL-0700_RLatLon0.09_PT040H.grib2 2026-05-04 14:57 671K
20260504T12Z_MSC_RDPS_WindDir_IsbL-0750_RLatLon0.09_PT040H.grib2 2026-05-04 14:57 716K
20260504T12Z_MSC_RDPS_WindDir_IsbL-0800_RLatLon0.09_PT040H.grib2 2026-05-04 14:57 779K
20260504T12Z_MSC_RDPS_WindDir_IsbL-0850_RLatLon0.09_PT040H.grib2 2026-05-04 14:57 857K
20260504T12Z_MSC_RDPS_WindDir_IsbL-0875_RLatLon0.09_PT040H.grib2 2026-05-04 14:57 878K
20260504T12Z_MSC_RDPS_WindDir_IsbL-0900_RLatLon0.09_PT040H.grib2 2026-05-04 14:57 886K
20260504T12Z_MSC_RDPS_WindDir_IsbL-0925_RLatLon0.09_PT040H.grib2 2026-05-04 14:57 892K
20260504T12Z_MSC_RDPS_WindDir_IsbL-0950_RLatLon0.09_PT040H.grib2 2026-05-04 14:57 888K
20260504T12Z_MSC_RDPS_WindDir_IsbL-0970_RLatLon0.09_PT040H.grib2 2026-05-04 14:57 890K
20260504T12Z_MSC_RDPS_WindDir_IsbL-0985_RLatLon0.09_PT040H.grib2 2026-05-04 14:57 896K
20260504T12Z_MSC_RDPS_WindDir_IsbL-1000_RLatLon0.09_PT040H.grib2 2026-05-04 14:57 909K
20260504T12Z_MSC_RDPS_WindDir_IsbL-1015_RLatLon0.09_PT040H.grib2 2026-05-04 14:57 927K
20260504T12Z_MSC_RDPS_WindGust-Max_AGL-10m_RLatLon0.09_PT040H.grib2 2026-05-04 14:57 1.0M
20260504T12Z_MSC_RDPS_WindGust-Min_AGL-10m_RLatLon0.09_PT040H.grib2 2026-05-04 14:57 1.0M
20260504T12Z_MSC_RDPS_WindGust_AGL-10m_RLatLon0.09_PT040H.grib2 2026-05-04 14:57 1.0M
20260504T12Z_MSC_RDPS_WindSpeed_AGL-10m_RLatLon0.09_PT040H.grib2 2026-05-04 14:57 840K
20260504T12Z_MSC_RDPS_WindSpeed_AGL-120m_RLatLon0.09_PT040H.grib2 2026-05-04 14:57 536K
20260504T12Z_MSC_RDPS_WindSpeed_AGL-40m_RLatLon0.09_PT040H.grib2 2026-05-04 14:57 542K
20260504T12Z_MSC_RDPS_WindSpeed_AGL-80m_RLatLon0.09_PT040H.grib2 2026-05-04 14:57 538K
20260504T12Z_MSC_RDPS_WindSpeed_IsbL-0001_RLatLon0.09_PT040H.grib2 2026-05-04 14:57 254K
20260504T12Z_MSC_RDPS_WindSpeed_IsbL-0005_RLatLon0.09_PT040H.grib2 2026-05-04 14:57 349K
20260504T12Z_MSC_RDPS_WindSpeed_IsbL-0010_RLatLon0.09_PT040H.grib2 2026-05-04 14:57 368K
20260504T12Z_MSC_RDPS_WindSpeed_IsbL-0020_RLatLon0.09_PT040H.grib2 2026-05-04 14:57 420K
20260504T12Z_MSC_RDPS_WindSpeed_IsbL-0030_RLatLon0.09_PT040H.grib2 2026-05-04 14:57 321K
20260504T12Z_MSC_RDPS_WindSpeed_IsbL-0050_RLatLon0.09_PT040H.grib2 2026-05-04 14:57 354K
20260504T12Z_MSC_RDPS_WindSpeed_IsbL-0100_RLatLon0.09_PT040H.grib2 2026-05-04 14:57 475K
20260504T12Z_MSC_RDPS_WindSpeed_IsbL-0150_RLatLon0.09_PT040H.grib2 2026-05-04 14:57 384K
20260504T12Z_MSC_RDPS_WindSpeed_IsbL-0175_RLatLon0.09_PT040H.grib2 2026-05-04 14:57 428K
20260504T12Z_MSC_RDPS_WindSpeed_IsbL-0200_RLatLon0.09_PT040H.grib2 2026-05-04 14:57 441K
20260504T12Z_MSC_RDPS_WindSpeed_IsbL-0225_RLatLon0.09_PT040H.grib2 2026-05-04 14:57 444K
20260504T12Z_MSC_RDPS_WindSpeed_IsbL-0250_RLatLon0.09_PT040H.grib2 2026-05-04 14:57 446K
20260504T12Z_MSC_RDPS_WindSpeed_IsbL-0275_RLatLon0.09_PT040H.grib2 2026-05-04 14:57 462K
20260504T12Z_MSC_RDPS_WindSpeed_IsbL-0300_RLatLon0.09_PT040H.grib2 2026-05-04 14:57 461K
20260504T12Z_MSC_RDPS_WindSpeed_IsbL-0350_RLatLon0.09_PT040H.grib2 2026-05-04 14:57 476K
20260504T12Z_MSC_RDPS_WindSpeed_IsbL-0400_RLatLon0.09_PT040H.grib2 2026-05-04 14:57 479K
20260504T12Z_MSC_RDPS_WindSpeed_IsbL-0450_RLatLon0.09_PT040H.grib2 2026-05-04 14:57 481K
20260504T12Z_MSC_RDPS_WindSpeed_IsbL-0500_RLatLon0.09_PT040H.grib2 2026-05-04 14:57 461K
20260504T12Z_MSC_RDPS_WindSpeed_IsbL-0550_RLatLon0.09_PT040H.grib2 2026-05-04 14:57 462K
20260504T12Z_MSC_RDPS_WindSpeed_IsbL-0600_RLatLon0.09_PT040H.grib2 2026-05-04 14:57 471K
20260504T12Z_MSC_RDPS_WindSpeed_IsbL-0650_RLatLon0.09_PT040H.grib2 2026-05-04 14:57 490K
20260504T12Z_MSC_RDPS_WindSpeed_IsbL-0700_RLatLon0.09_PT040H.grib2 2026-05-04 14:57 633K
20260504T12Z_MSC_RDPS_WindSpeed_IsbL-0750_RLatLon0.09_PT040H.grib2 2026-05-04 14:57 662K
20260504T12Z_MSC_RDPS_WindSpeed_IsbL-0800_RLatLon0.09_PT040H.grib2 2026-05-04 14:57 756K
20260504T12Z_MSC_RDPS_WindSpeed_IsbL-0850_RLatLon0.09_PT040H.grib2 2026-05-04 14:57 824K
20260504T12Z_MSC_RDPS_WindSpeed_IsbL-0875_RLatLon0.09_PT040H.grib2 2026-05-04 14:57 846K
20260504T12Z_MSC_RDPS_WindSpeed_IsbL-0900_RLatLon0.09_PT040H.grib2 2026-05-04 14:57 860K
20260504T12Z_MSC_RDPS_WindSpeed_IsbL-0925_RLatLon0.09_PT040H.grib2 2026-05-04 14:57 874K
20260504T12Z_MSC_RDPS_WindSpeed_IsbL-0950_RLatLon0.09_PT040H.grib2 2026-05-04 14:57 873K
20260504T12Z_MSC_RDPS_WindSpeed_IsbL-0970_RLatLon0.09_PT040H.grib2 2026-05-04 14:57 871K
20260504T12Z_MSC_RDPS_WindSpeed_IsbL-0985_RLatLon0.09_PT040H.grib2 2026-05-04 14:57 861K
20260504T12Z_MSC_RDPS_WindSpeed_IsbL-1000_RLatLon0.09_PT040H.grib2 2026-05-04 14:57 849K
20260504T12Z_MSC_RDPS_WindSpeed_IsbL-1015_RLatLon0.09_PT040H.grib2 2026-05-04 14:57 841K
20260504T12Z_MSC_RDPS_WindU_AGL-10m_RLatLon0.09_PT040H.grib2 2026-05-04 14:57 430K
20260504T12Z_MSC_RDPS_WindU_AGL-120m_RLatLon0.09_PT040H.grib2 2026-05-04 14:57 531K
20260504T12Z_MSC_RDPS_WindU_AGL-40m_RLatLon0.09_PT040H.grib2 2026-05-04 14:57 535K
20260504T12Z_MSC_RDPS_WindU_AGL-80m_RLatLon0.09_PT040H.grib2 2026-05-04 14:57 533K
20260504T12Z_MSC_RDPS_WindU_IsbL-0001_RLatLon0.09_PT040H.grib2 2026-05-04 14:57 241K
20260504T12Z_MSC_RDPS_WindU_IsbL-0005_RLatLon0.09_PT040H.grib2 2026-05-04 14:57 284K
20260504T12Z_MSC_RDPS_WindU_IsbL-0010_RLatLon0.09_PT040H.grib2 2026-05-04 14:57 296K
20260504T12Z_MSC_RDPS_WindU_IsbL-0020_RLatLon0.09_PT040H.grib2 2026-05-04 14:57 315K
20260504T12Z_MSC_RDPS_WindU_IsbL-0030_RLatLon0.09_PT040H.grib2 2026-05-04 14:57 352K
20260504T12Z_MSC_RDPS_WindU_IsbL-0050_RLatLon0.09_PT040H.grib2 2026-05-04 14:57 382K
20260504T12Z_MSC_RDPS_WindU_IsbL-0100_RLatLon0.09_PT040H.grib2 2026-05-04 14:57 335K
20260504T12Z_MSC_RDPS_WindU_IsbL-0150_RLatLon0.09_PT040H.grib2 2026-05-04 14:57 400K
20260504T12Z_MSC_RDPS_WindU_IsbL-0175_RLatLon0.09_PT040H.grib2 2026-05-04 14:57 327K
20260504T12Z_MSC_RDPS_WindU_IsbL-0200_RLatLon0.09_PT040H.grib2 2026-05-04 14:57 337K
20260504T12Z_MSC_RDPS_WindU_IsbL-0225_RLatLon0.09_PT040H.grib2 2026-05-04 14:57 338K
20260504T12Z_MSC_RDPS_WindU_IsbL-0250_RLatLon0.09_PT040H.grib2 2026-05-04 14:57 337K
20260504T12Z_MSC_RDPS_WindU_IsbL-0275_RLatLon0.09_PT040H.grib2 2026-05-04 14:57 351K
20260504T12Z_MSC_RDPS_WindU_IsbL-0300_RLatLon0.09_PT040H.grib2 2026-05-04 14:57 349K
20260504T12Z_MSC_RDPS_WindU_IsbL-0350_RLatLon0.09_PT040H.grib2 2026-05-04 14:57 362K
20260504T12Z_MSC_RDPS_WindU_IsbL-0400_RLatLon0.09_PT040H.grib2 2026-05-04 14:57 467K
20260504T12Z_MSC_RDPS_WindU_IsbL-0450_RLatLon0.09_PT040H.grib2 2026-05-04 14:57 469K
20260504T12Z_MSC_RDPS_WindU_IsbL-0500_RLatLon0.09_PT040H.grib2 2026-05-04 14:57 469K
20260504T12Z_MSC_RDPS_WindU_IsbL-0550_RLatLon0.09_PT040H.grib2 2026-05-04 14:57 470K
20260504T12Z_MSC_RDPS_WindU_IsbL-0600_RLatLon0.09_PT040H.grib2 2026-05-04 14:57 479K
20260504T12Z_MSC_RDPS_WindU_IsbL-0650_RLatLon0.09_PT040H.grib2 2026-05-04 14:57 499K
20260504T12Z_MSC_RDPS_WindU_IsbL-0700_RLatLon0.09_PT040H.grib2 2026-05-04 14:57 502K
20260504T12Z_MSC_RDPS_WindU_IsbL-0750_RLatLon0.09_PT040H.grib2 2026-05-04 14:57 528K
20260504T12Z_MSC_RDPS_WindU_IsbL-0800_RLatLon0.09_PT040H.grib2 2026-05-04 14:57 571K
20260504T12Z_MSC_RDPS_WindU_IsbL-0850_RLatLon0.09_PT040H.grib2 2026-05-04 14:57 632K
20260504T12Z_MSC_RDPS_WindU_IsbL-0875_RLatLon0.09_PT040H.grib2 2026-05-04 14:57 651K
20260504T12Z_MSC_RDPS_WindU_IsbL-0900_RLatLon0.09_PT040H.grib2 2026-05-04 14:57 660K
20260504T12Z_MSC_RDPS_WindU_IsbL-0925_RLatLon0.09_PT040H.grib2 2026-05-04 14:57 669K
20260504T12Z_MSC_RDPS_WindU_IsbL-0950_RLatLon0.09_PT040H.grib2 2026-05-04 14:57 663K
20260504T12Z_MSC_RDPS_WindU_IsbL-0970_RLatLon0.09_PT040H.grib2 2026-05-04 14:57 798K
20260504T12Z_MSC_RDPS_WindU_IsbL-0985_RLatLon0.09_PT040H.grib2 2026-05-04 14:57 787K
20260504T12Z_MSC_RDPS_WindU_IsbL-1000_RLatLon0.09_PT040H.grib2 2026-05-04 14:57 781K
20260504T12Z_MSC_RDPS_WindU_IsbL-1015_RLatLon0.09_PT040H.grib2 2026-05-04 14:57 821K
20260504T12Z_MSC_RDPS_WindV_AGL-10m_RLatLon0.09_PT040H.grib2 2026-05-04 14:57 432K
20260504T12Z_MSC_RDPS_WindV_AGL-120m_RLatLon0.09_PT040H.grib2 2026-05-04 14:57 416K
20260504T12Z_MSC_RDPS_WindV_AGL-40m_RLatLon0.09_PT040H.grib2 2026-05-04 14:57 537K
20260504T12Z_MSC_RDPS_WindV_AGL-80m_RLatLon0.09_PT040H.grib2 2026-05-04 14:57 418K
20260504T12Z_MSC_RDPS_WindV_IsbL-0001_RLatLon0.09_PT040H.grib2 2026-05-04 14:57 246K
20260504T12Z_MSC_RDPS_WindV_IsbL-0005_RLatLon0.09_PT040H.grib2 2026-05-04 14:57 289K
20260504T12Z_MSC_RDPS_WindV_IsbL-0010_RLatLon0.09_PT040H.grib2 2026-05-04 14:57 390K
20260504T12Z_MSC_RDPS_WindV_IsbL-0020_RLatLon0.09_PT040H.grib2 2026-05-04 14:57 317K
20260504T12Z_MSC_RDPS_WindV_IsbL-0030_RLatLon0.09_PT040H.grib2 2026-05-04 14:57 316K
20260504T12Z_MSC_RDPS_WindV_IsbL-0050_RLatLon0.09_PT040H.grib2 2026-05-04 14:57 347K
20260504T12Z_MSC_RDPS_WindV_IsbL-0100_RLatLon0.09_PT040H.grib2 2026-05-04 14:57 426K
20260504T12Z_MSC_RDPS_WindV_IsbL-0150_RLatLon0.09_PT040H.grib2 2026-05-04 14:57 396K
20260504T12Z_MSC_RDPS_WindV_IsbL-0175_RLatLon0.09_PT040H.grib2 2026-05-04 14:57 324K
20260504T12Z_MSC_RDPS_WindV_IsbL-0200_RLatLon0.09_PT040H.grib2 2026-05-04 14:57 335K
20260504T12Z_MSC_RDPS_WindV_IsbL-0225_RLatLon0.09_PT040H.grib2 2026-05-04 14:57 337K
20260504T12Z_MSC_RDPS_WindV_IsbL-0250_RLatLon0.09_PT040H.grib2 2026-05-04 14:57 338K
20260504T12Z_MSC_RDPS_WindV_IsbL-0275_RLatLon0.09_PT040H.grib2 2026-05-04 14:57 352K
20260504T12Z_MSC_RDPS_WindV_IsbL-0300_RLatLon0.09_PT040H.grib2 2026-05-04 14:57 349K
20260504T12Z_MSC_RDPS_WindV_IsbL-0350_RLatLon0.09_PT040H.grib2 2026-05-04 14:57 385K
20260504T12Z_MSC_RDPS_WindV_IsbL-0400_RLatLon0.09_PT040H.grib2 2026-05-04 14:57 363K
20260504T12Z_MSC_RDPS_WindV_IsbL-0450_RLatLon0.09_PT040H.grib2 2026-05-04 14:57 364K
20260504T12Z_MSC_RDPS_WindV_IsbL-0500_RLatLon0.09_PT040H.grib2 2026-05-04 14:57 363K
20260504T12Z_MSC_RDPS_WindV_IsbL-0550_RLatLon0.09_PT040H.grib2 2026-05-04 14:57 468K
20260504T12Z_MSC_RDPS_WindV_IsbL-0600_RLatLon0.09_PT040H.grib2 2026-05-04 14:57 476K
20260504T12Z_MSC_RDPS_WindV_IsbL-0650_RLatLon0.09_PT040H.grib2 2026-05-04 14:57 493K
20260504T12Z_MSC_RDPS_WindV_IsbL-0700_RLatLon0.09_PT040H.grib2 2026-05-04 14:57 514K
20260504T12Z_MSC_RDPS_WindV_IsbL-0750_RLatLon0.09_PT040H.grib2 2026-05-04 14:57 537K
20260504T12Z_MSC_RDPS_WindV_IsbL-0800_RLatLon0.09_PT040H.grib2 2026-05-04 14:57 566K
20260504T12Z_MSC_RDPS_WindV_IsbL-0850_RLatLon0.09_PT040H.grib2 2026-05-04 14:57 625K
20260504T12Z_MSC_RDPS_WindV_IsbL-0875_RLatLon0.09_PT040H.grib2 2026-05-04 14:57 645K
20260504T12Z_MSC_RDPS_WindV_IsbL-0900_RLatLon0.09_PT040H.grib2 2026-05-04 14:57 656K
20260504T12Z_MSC_RDPS_WindV_IsbL-0925_RLatLon0.09_PT040H.grib2 2026-05-04 14:57 666K
20260504T12Z_MSC_RDPS_WindV_IsbL-0950_RLatLon0.09_PT040H.grib2 2026-05-04 14:57 668K
20260504T12Z_MSC_RDPS_WindV_IsbL-0970_RLatLon0.09_PT040H.grib2 2026-05-04 14:57 659K
20260504T12Z_MSC_RDPS_WindV_IsbL-0985_RLatLon0.09_PT040H.grib2 2026-05-04 14:57 652K
20260504T12Z_MSC_RDPS_WindV_IsbL-1000_RLatLon0.09_PT040H.grib2 2026-05-04 14:57 646K
20260504T12Z_MSC_RDPS_WindV_IsbL-1015_RLatLon0.09_PT040H.grib2 2026-05-04 14:57 778K